CW5775 Weather Reports


time (UTC)temp
F
wind
direction
speed
knots
gust
knots
rain 1hr
in
rain 24hr
in
rain mn
in
humidity
%
barometer
mb
20220627213348 75 296 0.0 0.0 0.00 0.00 0.43 92 1010.9
20220627213036 75 296 0.0 0.0 0.00 0.00 0.43 92 1010.8
20220627212332 75 296 0.0 0.0 0.00 0.00 0.43 92 1010.9
20220627211554 75 296 0.0 0.0 0.00 0.00 0.43 92 1010.9
20220627211357 75 296 0.0 0.0 0.00 0.00 0.43 92 1011.0
20220627210345 75 296 0.0 0.0 0.00 0.00 0.43 92 1010.9
20220627210040 75 296 0.0 0.0 0.00 0.00 0.43 92 1010.7
20220627205336 75 296 0.0 0.0 0.00 0.00 0.42 92 1010.9
20220627204606 74 296 0.0 0.0 0.00 0.00 0.42 92 1010.4
20220627204358 75 296 0.0 0.0 0.00 0.00 0.42 92 1010.6
20220627203349 75 297 0.0 0.0 0.00 0.00 0.42 92 1010.5
20220627203059 74 296 0.0 0.0 0.00 0.00 0.42 92 1010.3
20220627202346 75 296 0.9 0.0 0.00 0.00 0.42 92 1010.5
20220627201531 74 187 0.9 0.0 0.00 0.00 0.42 92 1010.4
20220627201345 75 187 0.9 0.0 0.00 0.00 0.42 92 1010.6
20220627200338 74 291 0.9 0.0 0.00 0.00 0.42 92 1010.3
20220627200023 74 291 0.9 0.0 0.00 0.00 0.42 92 1010.2
20220627195334 74 295 1.7 0.0 0.00 0.00 0.42 92 1010.3
20220627194548 74 226 1.7 0.0 0.00 0.00 0.42 92 1010.0
20220627194338 74 235 1.7 0.0 0.00 0.00 0.42 92 1010.1
20220627193332 74 283 0.9 0.0 0.00 0.00 0.42 92 1010.5
20220627193047 73 253 0.9 0.0 0.00 0.00 0.42 91 1010.4
20220627192341 73 268 0.9 0.0 0.00 0.00 0.41 91 1010.5
20220627191605 72 260 0.0 0.0 0.00 0.00 0.40 91 1010.7
20220627191336 73 259 0.9 0.0 0.00 0.00 0.40 90 1010.9
20220627190333 73 260 0.0 0.0 0.00 0.00 0.38 90 1010.9
20220627190057 72 260 0.0 0.0 0.00 0.00 0.38 90 1010.7
20220627185342 73 260 0.9 0.0 0.00 0.00 0.38 89 1010.9
20220627184512 73 258 1.7 0.0 0.00 0.00 0.28 88 1011.0
20220627184337 74 257 1.7 0.0 0.00 0.00 0.28 88 1011.2
20220627183335 75 335 1.7 0.0 0.00 0.00 0.19 86 1011.3
20220627183014 75 315 1.7 0.0 0.00 0.00 0.19 85 1011.1
20220627182359 76 288 2.6 0.0 0.00 0.00 0.12 83 1011.3
20220627181537 78 311 0.9 0.0 0.00 0.00 0.06 82 1010.7
20220627181330 78 286 0.9 0.0 0.00 0.00 0.05 81 1010.9
20220627180341 78 203 0.9 0.0 0.00 0.00 0.05 80 1011.1
20220627180033 78 171 0.9 0.0 0.00 0.00 0.05 80 1010.9
20220627175334 79 250 0.9 0.0 0.00 0.00 0.05 81 1011.1
20220627174552 78 176 0.9 0.0 0.00 0.00 0.05 82 1011.2
20220627174341 79 168 0.9 0.0 0.00 0.00 0.05 81 1011.3
20220627173346 79 173 1.7 0.0 0.00 0.00 0.05 82 1011.3
20220627173041 78 184 0.9 0.0 0.00 0.00 0.05 82 1011.2
20220627172342 79 239 0.9 0.0 0.00 0.00 0.05 82 1011.3
20220627171506 78 187 0.9 0.0 0.00 0.00 0.05 83 1011.2
20220627171334 78 187 0.9 0.0 0.00 0.00 0.05 83 1011.4
20220627170352 78 226 0.9 0.0 0.00 0.00 0.05 85 1011.6
20220627170059 78 226 0.9 0.0 0.00 0.00 0.05 84 1011.4
20220627165339 78 184 1.7 0.0 0.00 0.00 0.05 82 1011.6
20220627164512 78 204 0.9 0.0 0.00 0.00 0.05 83 1011.5
20220627164333 78 175 0.9 0.0 0.00 0.00 0.05 83 1011.7
20220627163359 78 331 0.9 0.0 0.00 0.00 0.05 86 1011.8
20220627163007 78 181 0.9 0.0 0.00 0.00 0.05 87 1011.6
20220627162352 78 196 0.9 0.0 0.00 0.00 0.05 89 1011.8
20220627161535 77 184 0.9 0.0 0.00 0.00 0.05 88 1011.7
20220627161343 77 185 0.9 0.0 0.00 0.00 0.05 89 1011.9
20220627160332 76 184 0.0 0.0 0.00 0.00 0.05 89 1011.9
20220627160016 76 184 0.0 0.0 0.00 0.00 0.05 88 1011.8
20220627155352 76 184 0.9 0.0 0.00 0.00 0.05 86 1011.9
20220627154538 76 183 1.7 0.0 0.00 0.00 0.05 83 1011.8
20220627154343 77 189 1.7 0.0 0.00 0.00 0.05 82 1012.0
20220627153337 79 176 1.7 0.0 0.00 0.00 0.00 77 1011.9
20220627153038 79 169 1.7 0.0 0.00 0.00 0.00 76 1011.7
20220627152335 80 184 0.9 0.0 0.00 0.00 0.00 75 1011.9
20220627151601 80 210 0.9 0.0 0.00 0.00 0.00 74 1011.7
20220627151357 80 179 1.7 0.0 0.00 0.00 0.00 74 1011.8
20220627150342 80 182 2.6 0.0 0.00 0.00 0.00 73 1011.7
20220627150053 80 199 2.6 0.0 0.00 0.00 0.00 73 1011.5
20220627145333 81 155 1.7 0.0 0.00 0.00 0.00 71 1011.7
20220627144609 80 172 2.6 0.0 0.00 0.00 0.00 73 1011.6
20220627144352 80 183 2.6 0.0 0.00 0.00 0.00 73 1011.8
20220627143347 81 180 2.6 0.0 0.00 0.00 0.00 72 1011.8
20220627143102 80 177 2.6 0.0 0.00 0.00 0.00 72 1011.7
20220627142338 80 196 1.7 0.0 0.00 0.00 0.00 73 1011.8
20220627141512 81 182 1.7 0.0 0.00 0.00 0.00 72 1011.6
20220627141349 81 189 2.6 0.0 0.00 0.00 0.00 72 1011.8
20220627140356 81 177 1.7 0.0 0.00 0.00 0.00 73 1011.9
20220627140009 80 174 1.7 0.0 0.00 0.00 0.00 74 1011.7
20220627135347 80 187 1.7 0.0 0.00 0.00 0.00 74 1011.9
20220627134539 79 180 1.7 0.0 0.00 0.00 0.00 75 1011.7
20220627134336 80 180 1.7 0.0 0.00 0.00 0.00 75 1011.9
20220627133332 79 196 2.6 0.0 0.00 0.00 0.00 76 1012.0
20220627133030 79 183 2.6 0.0 0.00 0.00 0.00 76 1011.8
20220627132351 79 189 2.6 0.0 0.00 0.00 0.00 76 1012.0
20220627131549 78 184 1.7 0.0 0.00 0.00 0.00 76 1011.8
20220627131349 78 187 1.7 0.0 0.00 0.00 0.00 77 1012.0
20220627130339 78 210 1.7 0.0 0.00 0.00 0.00 78 1011.9
20220627130044 77 180 1.7 0.0 0.00 0.00 0.00 78 1011.8
20220627125332 77 179 1.7 0.0 0.00 0.00 0.00 79 1011.9
20220627124505 76 204 2.6 0.0 0.00 0.00 0.00 81 1011.8
20220627124357 76 189 2.6 0.0 0.00 0.00 0.00 81 1012.0
20220627123346 76 184 2.6 0.0 0.00 0.00 0.00 81 1012.0
20220627123100 75 176 2.6 0.0 0.00 0.00 0.00 82 1011.9
20220627122343 75 195 2.6 0.0 0.00 0.00 0.00 83 1012.0
20220627121519 74 183 1.7 0.0 0.00 0.00 0.00 84 1011.8
20220627121337 75 182 2.6 0.0 0.00 0.00 0.00 84 1012.0
20220627120348 74 170 2.6 0.0 0.00 0.00 0.00 84 1012.1
20220627120007 74 175 1.7 0.0 0.00 0.00 0.00 83 1011.9
20220627115344 75 198 1.7 0.0 0.00 0.00 0.00 82 1012.1
20220627114537 74 168 1.7 0.0 0.00 0.00 0.00 83 1011.9
20220627114343 74 185 1.7 0.0 0.00 0.00 0.00 83 1012.1
20220627113336 74 195 1.7 0.0 0.00 0.00 0.00 84 1012.0
20220627113032 73 187 1.7 0.0 0.00 0.00 0.00 84 1011.8
20220627112359 74 193 1.7 0.0 0.00 0.00 0.00 84 1012.0
20220627111551 73 163 1.7 0.0 0.00 0.00 0.00 85 1011.9
20220627111355 73 179 1.7 0.0 0.00 0.00 0.00 85 1012.1
20220627110330 73 184 1.7 0.0 0.00 0.00 0.00 85 1012.0
20220627110107 72 188 2.6 0.0 0.00 0.00 0.00 85 1011.8
20220627105345 73 170 2.6 0.0 0.00 0.00 0.00 85 1012.0
20220627104508 72 177 1.7 0.0 0.00 0.00 0.00 85 1011.8
20220627104335 73 176 1.7 0.0 0.00 0.00 0.00 85 1011.9
20220627103351 72 180 1.7 0.0 0.00 0.00 0.00 86 1012.0
20220627103109 72 182 1.7 0.0 0.00 0.00 0.00 85 1011.8
20220627102344 72 163 1.7 0.0 0.00 0.00 0.00 85 1012.0
20220627101516 72 175 1.7 0.0 0.00 0.00 0.00 85 1011.7
20220627101346 72 170 1.7 0.0 0.00 0.00 0.00 85 1011.9
20220627100339 72 180 1.7 0.0 0.00 0.00 0.00 85 1011.9
20220627100017 72 182 1.7 0.0 0.00 0.00 0.00 85 1011.7
20220627095353 72 173 1.7 0.0 0.00 0.00 0.00 85 1011.9
20220627094549 72 187 1.7 0.0 0.00 0.00 0.00 85 1011.7
20220627094351 72 183 1.7 0.0 0.00 0.00 0.00 85 1011.9
20220627093349 72 189 1.7 0.0 0.00 0.00 0.00 84 1011.9
20220627093109 72 182 1.7 0.0 0.00 0.00 0.00 84 1011.7
20220627092341 72 177 1.7 0.0 0.00 0.00 0.00 84 1011.9
20220627091509 72 165 1.7 0.0 0.00 0.00 0.00 84 1011.5
20220627091336 72 170 1.7 0.0 0.00 0.00 0.00 84 1011.7
20220627090332 73 184 1.7 0.0 0.00 0.00 0.00 83 1011.8
20220627090005 72 181 1.7 0.0 0.00 0.00 0.00 83 1011.6
20220627085329 73 151 1.7 0.0 0.00 0.00 0.00 83 1011.8
20220627084521 72 182 1.7 0.0 0.00 0.00 0.00 83 1011.7
20220627084343 73 196 1.7 0.0 0.00 0.00 0.00 83 1011.9
20220627083338 73 189 1.7 0.0 0.00 0.00 0.00 83 1011.9
20220627083029 72 161 1.7 0.0 0.00 0.00 0.00 83 1011.7
20220627082358 72 184 1.7 0.0 0.00 0.00 0.00 83 1011.9
20220627081548 72 183 1.7 0.0 0.00 0.00 0.00 83 1011.7
20220627081357 72 169 1.7 0.0 0.00 0.00 0.00 83 1011.9
20220627080328 72 179 1.7 0.0 0.00 0.00 0.00 83 1012.3
20220627080049 72 170 1.7 0.0 0.00 0.00 0.00 83 1012.1
20220627075342 72 182 1.7 0.0 0.00 0.00 0.00 83 1012.3
20220627074501 71 185 1.7 0.0 0.00 0.00 0.00 82 1012.3
20220627074334 72 166 1.7 0.0 0.00 0.00 0.00 82 1012.5
20220627073338 72 176 1.7 0.0 0.00 0.00 0.00 82 1012.9
20220627073102 71 170 1.7 0.0 0.00 0.00 0.00 82 1012.7
20220627072332 72 155 1.7 0.0 0.00 0.00 0.00 82 1012.9
20220627071525 71 176 1.7 0.0 0.00 0.00 0.00 82 1012.8
20220627071346 72 185 1.7 0.0 0.00 0.00 0.00 82 1013.0
20220627070338 72 181 1.7 0.0 0.00 0.00 0.00 81 1013.2
20220627070014 71 191 1.7 0.0 0.00 0.00 0.00 81 1013.0
20220627065343 72 180 1.7 0.0 0.00 0.00 0.00 81 1013.2
20220627064547 71 183 1.7 0.0 0.00 0.00 0.00 81 1013.2
20220627064335 72 180 1.7 0.0 0.00 0.00 0.00 81 1013.4
20220627063334 72 184 1.7 0.0 0.00 0.00 0.00 81 1013.5
20220627063041 71 189 1.7 0.0 0.00 0.00 0.00 81 1013.3
20220627062339 72 188 1.7 0.0 0.00 0.00 0.00 81 1013.5
20220627061601 71 189 1.7 0.0 0.00 0.00 0.00 81 1013.3
20220627061352 72 181 1.7 0.0 0.00 0.00 0.00 81 1013.5
20220627060342 72 168 1.7 0.0 0.00 0.00 0.00 80 1013.6
20220627060044 72 174 1.7 0.0 0.00 0.00 0.00 81 1013.3
20220627055335 72 165 1.7 0.0 0.00 0.00 0.00 80 1013.6
20220627054608 72 169 1.7 0.0 0.00 0.00 0.00 80 1013.5
20220627054402 72 170 1.7 0.0 0.00 0.00 0.00 80 1013.7
20220627053355 72 162 1.7 0.0 0.00 0.00 0.00 80 1013.7
20220627053059 72 154 1.7 0.0 0.00 0.00 0.00 80 1013.5
20220627052347 72 183 1.7 0.0 0.00 0.00 0.00 80 1013.7
20220627051515 72 160 1.7 0.0 0.00 0.00 0.00 79 1013.8
20220627051338 72 179 1.7 0.0 0.00 0.00 0.00 79 1014.0
20220627050349 72 187 1.7 0.0 0.00 0.00 0.00 79 1014.0
20220627050107 72 182 1.7 0.0 0.00 0.00 0.00 79 1013.8
20220627045341 72 200 1.7 0.0 0.00 0.00 0.00 78 1014.0
20220627044522 72 182 1.7 0.0 0.00 0.00 0.00 78 1013.8
20220627044332 73 180 1.7 0.0 0.00 0.00 0.00 78 1014.0
20220627043347 73 182 1.7 0.0 0.00 0.00 0.00 77 1014.0
20220627043013 72 196 1.7 0.0 0.00 0.00 0.00 77 1013.8
20220627042352 73 180 1.7 0.0 0.00 0.00 0.00 76 1014.0
20220627041543 73 156 1.7 0.0 0.00 0.00 0.00 76 1013.8
20220627041343 73 170 1.7 0.0 0.00 0.00 0.00 75 1014.0
20220627040333 73 181 1.7 0.0 0.00 0.00 0.00 75 1014.0
20220627040019 73 180 1.7 0.0 0.00 0.00 0.00 74 1013.8
20220627035351 73 180 1.7 0.0 0.00 0.00 0.00 74 1014.0
20220627034543 73 177 1.7 0.0 0.00 0.00 0.00 74 1013.9
20220627034344 74 186 1.7 0.0 0.00 0.00 0.00 73 1014.1
20220627033335 74 180 1.7 0.0 0.00 0.00 0.00 73 1014.1
20220627033036 73 177 1.7 0.0 0.00 0.00 0.00 73 1013.9
20220627032347 74 186 1.7 0.0 0.00 0.00 0.00 73 1014.1
20220627031603 74 191 1.7 0.0 0.00 0.00 0.00 73 1013.9
20220627031349 74 168 1.7 0.0 0.00 0.00 0.00 72 1014.1
20220627030341 74 184 1.7 0.0 0.00 0.00 0.00 72 1014.1
20220627030053 74 179 1.7 0.0 0.00 0.00 0.00 72 1013.9
20220627025344 75 194 1.7 0.0 0.00 0.00 0.00 72 1014.1
20220627024608 74 168 1.7 0.0 0.00 0.00 0.00 71 1013.9
20220627024337 75 169 1.7 0.0 0.00 0.00 0.00 71 1014.1
20220627023340 75 171 1.7 0.0 0.00 0.00 0.00 70 1014.2
20220627023104 75 181 1.7 0.0 0.00 0.00 0.00 70 1014.0
20220627022333 75 189 1.7 0.0 0.00 0.00 0.00 69 1014.2
20220627021527 75 186 1.7 0.0 0.00 0.00 0.00 69 1014.1
20220627021341 76 183 1.7 0.0 0.00 0.00 0.00 69 1014.3
20220627020334 76 187 0.9 0.0 0.00 0.00 0.00 68 1014.1
20220627020013 76 187 0.9 0.0 0.00 0.00 0.00 68 1013.9
20220627015346 76 172 0.9 0.0 0.00 0.00 0.00 68 1014.1
20220627014545 76 177 0.9 0.0 0.00 0.00 0.00 68 1013.9
20220627014335 77 189 0.9 0.0 0.00 0.00 0.00 67 1014.1
20220627013330 77 163 0.9 0.0 0.00 0.00 0.00 67 1014.0
20220627013052 76 170 0.9 0.0 0.00 0.00 0.00 67 1013.8
20220627012326 77 177 1.7 0.0 0.00 0.00 0.00 66 1014.0
20220627011505 77 177 1.7 0.0 0.00 0.00 0.00 66 1013.7
20220627011338 77 177 1.7 0.0 0.00 0.00 0.00 66 1013.9
20220627010339 78 160 1.7 0.0 0.00 0.00 0.00 65 1013.6
20220627010100 77 173 1.7 0.0 0.00 0.00 0.00 65 1013.4
20220627005331 78 182 0.9 0.0 0.00 0.00 0.00 65 1013.6
20220627004510 78 156 1.7 0.0 0.00 0.00 0.00 65 1013.6
20220627004342 79 156 1.7 0.0 0.00 0.00 0.00 65 1013.8
20220627003337 79 184 1.7 0.0 0.00 0.00 0.00 64 1013.9
20220627003007 79 177 1.7 0.0 0.00 0.00 0.00 64 1013.7
20220627002341 79 168 1.7 0.0 0.00 0.00 0.00 64 1013.9
20220627001537 79 198 1.7 0.0 0.00 0.00 0.00 63 1013.3
20220627001340 80 175 1.7 0.0 0.00 0.00 0.00 63 1013.5
20220627000342 81 185 1.7 0.0 0.00 0.00 0.00 61 1013.5
20220627000028 80 178 1.7 0.0 0.00 0.00 0.00 61 1013.4
20220626235329 81 178 1.7 0.0 0.00 0.00 0.00 60 1013.5
20220626234550 81 194 1.7 0.0 0.00 0.00 0.00 60 1013.4
20220626234329 82 158 1.7 0.0 0.00 0.00 0.00 59 1013.5
20220626233335 82 158 1.7 0.0 0.00 0.00 0.00 58 1013.5
20220626233055 82 159 1.7 0.0 0.00 0.00 0.00 58 1013.3
20220626232331 83 173 1.7 0.0 0.00 0.00 0.00 58 1013.5
20220626231521 83 182 1.7 0.0 0.00 0.00 0.00 57 1013.3
20220626231333 83 181 1.7 0.0 0.00 0.00 0.00 56 1013.5
20220626230358 84 161 1.7 0.0 0.00 0.00 0.00 55 1013.5
20220626230012 84 153 1.7 0.0 0.00 0.00 0.00 55 1013.3
20220626225350 85 213 1.7 0.0 0.00 0.00 0.00 56 1013.5
20220626224538 85 178 2.6 0.0 0.00 0.00 0.00 55 1013.3
20220626224340 85 175 2.6 0.0 0.00 0.00 0.00 55 1013.5
20220626223349 86 179 2.6 0.0 0.00 0.00 0.00 54 1013.5
20220626223030 86 168 2.6 0.0 0.00 0.00 0.00 54 1013.3
20220626222353 87 187 2.6 0.0 0.00 0.00 0.00 53 1013.5
20220626221556 86 177 1.7 0.0 0.00 0.00 0.00 52 1013.3
20220626221343 87 165 2.6 0.0 0.00 0.00 0.00 51 1013.5
20220626220332 88 170 1.7 0.0 0.00 0.00 0.00 50 1013.5
20220626220045 88 179 1.7 0.0 0.00 0.00 0.00 50 1013.3
20220626215348 88 165 2.6 0.0 0.00 0.00 0.00 50 1013.5
20220626214610 88 190 2.6 0.0 0.00 0.00 0.00 49 1013.3
20220626214335 89 181 2.6 0.0 0.00 0.00 0.00 49 1013.5